| time (UTC) | temp C | wind direction | speed KPH | gust KPH | rain 1hr cm | rain 24hr cm | rain mn cm | humidity % | barometer mb |
| 20260507141436 | 22 | 92 | 3.2 | 3.2 | 0.00 | 0.00 | 0.00 | 19 | 1014.1 |
| 20260507140435 | 22 | 104 | 0.0 | 1.6 | 0.00 | 0.00 | 0.00 | 21 | 1013.9 |
| 20260507135435 | 21 | 103 | 1.6 | 1.6 | 0.00 | 0.00 | 0.00 | 24 | 1014.0 |
| 20260507134436 | 20 | 132 | 3.2 | 3.2 | 0.00 | 0.00 | 0.00 | 25 | 1013.9 |
| 20260507133531 | 20 | 98 | 0.0 | 1.6 | 0.00 | 0.00 | 0.00 | 26 | 1013.8 |
| 20260507133435 | 20 | 98 | 0.0 | 1.6 | 0.00 | 0.00 | 0.00 | 26 | 1013.8 |
| 20260507132435 | 20 | 95 | 0.0 | 0.0 | 0.00 | 0.00 | 0.00 | 26 | 1013.8 |
| 20260507131436 | 20 | 78 | 0.0 | 0.0 | 0.00 | 0.00 | 0.00 | 25 | 1013.8 |
| 20260507130435 | 19 | 56 | 1.6 | 1.6 | 0.00 | 0.00 | 0.00 | 25 | 1013.8 |
| 20260507125435 | 19 | 29 | 4.8 | 4.8 | 0.00 | 0.00 | 0.00 | 26 | 1013.7 |
| 20260507124436 | 19 | 49 | 4.8 | 6.4 | 0.00 | 0.00 | 0.00 | 26 | 1013.7 |
| 20260507123435 | 18 | 33 | 6.4 | 6.4 | 0.00 | 0.00 | 0.00 | 27 | 1013.6 |
| 20260507122435 | 17 | 23 | 6.4 | 8.0 | 0.00 | 0.00 | 0.00 | 29 | 1013.6 |
| 20260507121436 | 18 | 33 | 4.8 | 6.4 | 0.00 | 0.00 | 0.00 | 28 | 1013.6 |
| 20260507120435 | 18 | 15 | 6.4 | 9.7 | 0.00 | 0.00 | 0.00 | 28 | 1013.3 |
| 20260507115436 | 16 | 42 | 3.2 | 3.2 | 0.00 | 0.00 | 0.00 | 31 | 1013.5 |
| 20260507114438 | 16 | 59 | 0.0 | 1.6 | 0.00 | 0.00 | 0.00 | 32 | 1013.6 |
| 20260507113449 | 17 | 31 | 1.6 | 3.2 | 0.00 | 0.00 | 0.00 | 31 | 1013.7 |
| 20260507111540 | 16 | 34 | 3.2 | 4.8 | 0.00 | 0.00 | 0.00 | 31 | 1013.7 |
| 20260507111436 | 16 | 34 | 3.2 | 4.8 | 0.00 | 0.00 | 0.00 | 31 | 1013.7 |
| 20260507105435 | 17 | 31 | 3.2 | 3.2 | 0.00 | 0.00 | 0.00 | 30 | 1013.7 |
| 20260507104436 | 17 | 6 | 3.2 | 4.8 | 0.00 | 0.00 | 0.00 | 30 | 1013.8 |
| 20260507103435 | 17 | 60 | 1.6 | 3.2 | 0.00 | 0.00 | 0.00 | 30 | 1013.8 |
| 20260507102435 | 17 | 61 | 0.0 | 1.6 | 0.00 | 0.00 | 0.00 | 30 | 1014.0 |
| 20260507101436 | 17 | 26 | 1.6 | 3.2 | 0.00 | 0.00 | 0.00 | 30 | 1013.9 |
| 20260507100435 | 17 | 51 | 1.6 | 3.2 | 0.00 | 0.00 | 0.00 | 29 | 1014.1 |
| 20260507095438 | 17 | 2 | 6.4 | 8.0 | 0.00 | 0.00 | 0.00 | 28 | 1014.0 |
| 20260507094436 | 17 | 24 | 4.8 | 6.4 | 0.00 | 0.00 | 0.00 | 28 | 1013.9 |
| 20260507091435 | 17 | 37 | 1.6 | 1.6 | 0.00 | 0.00 | 0.00 | 30 | 1014.1 |
| 20260507090438 | 17 | 40 | 3.2 | 3.2 | 0.00 | 0.00 | 0.00 | 30 | 1014.4 |
| 20260507085438 | 17 | 46 | 3.2 | 4.8 | 0.00 | 0.00 | 0.00 | 30 | 1014.2 |
| 20260507084437 | 17 | 3 | 1.6 | 3.2 | 0.00 | 0.00 | 0.00 | 30 | 1014.4 |
| 20260507083436 | 16 | 58 | 1.6 | 3.2 | 0.00 | 0.00 | 0.00 | 30 | 1014.6 |
| 20260507082437 | 16 | 45 | 1.6 | 1.6 | 0.00 | 0.00 | 0.00 | 32 | 1014.5 |
| 20260507081508 | 15 | 37 | 1.6 | 3.2 | 0.00 | 0.00 | 0.00 | 32 | 1014.3 |
| 20260507081436 | 15 | 37 | 1.6 | 3.2 | 0.00 | 0.00 | 0.00 | 32 | 1014.3 |
| 20260507080435 | 15 | 54 | 1.6 | 1.6 | 0.00 | 0.00 | 0.00 | 33 | 1014.4 |
| 20260507075435 | 16 | 41 | 1.6 | 1.6 | 0.00 | 0.00 | 0.00 | 31 | 1014.6 |
| 20260507074436 | 16 | 55 | 0.0 | 1.6 | 0.00 | 0.00 | 0.00 | 31 | 1014.5 |
| 20260507073438 | 16 | 42 | 1.6 | 1.6 | 0.00 | 0.00 | 0.00 | 32 | 1014.5 |
| 20260507072435 | 16 | 55 | 0.0 | 1.6 | 0.00 | 0.00 | 0.00 | 32 | 1014.6 |
| 20260507071436 | 16 | 53 | 0.0 | 1.6 | 0.00 | 0.00 | 0.00 | 32 | 1014.7 |
| 20260507065435 | 16 | 29 | 1.6 | 1.6 | 0.00 | 0.00 | 0.00 | 32 | 1014.9 |
| 20260507064436 | 16 | 282 | 1.6 | 3.2 | 0.00 | 0.00 | 0.00 | 31 | 1014.7 |
| 20260507063435 | 16 | 39 | 0.0 | 1.6 | 0.00 | 0.00 | 0.00 | 31 | 1014.6 |
| 20260507062506 | 16 | 38 | 1.6 | 3.2 | 0.00 | 0.00 | 0.00 | 31 | 1014.4 |
| 20260507062435 | 16 | 38 | 1.6 | 3.2 | 0.00 | 0.00 | 0.00 | 31 | 1014.4 |
| 20260507061435 | 16 | 285 | 1.6 | 3.2 | 0.00 | 0.00 | 0.00 | 31 | 1014.5 |
| 20260507060435 | 16 | 36 | 1.6 | 1.6 | 0.00 | 0.00 | 0.00 | 31 | 1014.5 |
| 20260507054620 | 17 | 119 | 0.0 | 1.6 | 0.00 | 0.00 | 0.00 | 29 | 1014.3 |
| 20260507054436 | 17 | 119 | 0.0 | 1.6 | 0.00 | 0.00 | 0.00 | 29 | 1014.3 |
| 20260507052509 | 18 | 19 | 1.6 | 1.6 | 0.00 | 0.00 | 0.00 | 29 | 1014.4 |
| 20260507052435 | 18 | 19 | 1.6 | 1.6 | 0.00 | 0.00 | 0.00 | 29 | 1014.4 |
| 20260507051436 | 19 | 349 | 0.0 | 1.6 | 0.00 | 0.00 | 0.00 | 28 | 1014.6 |
| 20260507050436 | 18 | 297 | 1.6 | 3.2 | 0.00 | 0.00 | 0.00 | 28 | 1014.5 |
| 20260507045437 | 18 | 14 | 1.6 | 3.2 | 0.00 | 0.00 | 0.00 | 28 | 1014.4 |
| 20260507044438 | 19 | 20 | 1.6 | 3.2 | 0.00 | 0.00 | 0.00 | 28 | 1014.2 |
| 20260507042436 | 19 | 47 | 1.6 | 1.6 | 0.00 | 0.00 | 0.00 | 28 | 1014.1 |
| 20260507041436 | 19 | 0 | 3.2 | 3.2 | 0.00 | 0.00 | 0.00 | 28 | 1013.9 |
| 20260507040436 | 19 | 59 | 0.0 | 1.6 | 0.00 | 0.00 | 0.00 | 28 | 1013.8 |
| 20260507035600 | 20 | 276 | 1.6 | 3.2 | 0.00 | 0.00 | 0.00 | 28 | 1013.7 |
| 20260507035436 | 20 | 276 | 1.6 | 3.2 | 0.00 | 0.00 | 0.00 | 28 | 1013.7 |
| 20260507034437 | 20 | 16 | 1.6 | 3.2 | 0.00 | 0.00 | 0.00 | 27 | 1013.8 |
| 20260507033436 | 21 | 59 | 0.0 | 1.6 | 0.00 | 0.00 | 0.00 | 26 | 1013.8 |
| 20260507032436 | 21 | 270 | 1.6 | 1.6 | 0.00 | 0.00 | 0.00 | 25 | 1013.3 |
| 20260507031436 | 21 | 187 | 1.6 | 3.2 | 0.00 | 0.00 | 0.00 | 25 | 1013.6 |
| 20260507030435 | 21 | 190 | 0.0 | 1.6 | 0.00 | 0.00 | 0.00 | 25 | 1013.3 |
| 20260507024435 | 22 | 137 | 0.0 | 1.6 | 0.00 | 0.00 | 0.00 | 24 | 1013.1 |
| 20260507022436 | 23 | 168 | 3.2 | 3.2 | 0.00 | 0.00 | 0.00 | 23 | 1012.8 |
| 20260507020434 | 23 | 227 | 4.8 | 6.4 | 0.00 | 0.00 | 0.00 | 22 | 1012.8 |
| 20260507015435 | 24 | 79 | 1.6 | 1.6 | 0.00 | 0.00 | 0.00 | 21 | 1012.8 |
| 20260507014439 | 25 | 60 | 3.2 | 3.2 | 0.00 | 0.00 | 0.00 | 21 | 1012.6 |
| 20260507012438 | 25 | 214 | 9.7 | 9.7 | 0.00 | 0.00 | 0.00 | 20 | 1012.5 |
| 20260507011436 | 25 | 196 | 6.4 | 6.4 | 0.00 | 0.00 | 0.00 | 20 | 1012.4 |
| 20260507010434 | 25 | 81 | 4.8 | 6.4 | 0.00 | 0.00 | 0.00 | 20 | 1012.3 |
| 20260507004437 | 25 | 206 | 6.4 | 6.4 | 0.00 | 0.00 | 0.00 | 20 | 1012.4 |
| 20260507003434 | 26 | 230 | 9.7 | 12.9 | 0.00 | 0.00 | 0.00 | 19 | 1012.2 |
| 20260507002434 | 25 | 181 | 12.9 | 14.5 | 0.00 | 0.00 | 0.00 | 20 | 1012.3 |
| 20260507001436 | 25 | 126 | 3.2 | 4.8 | 0.00 | 0.00 | 0.00 | 20 | 1012.4 |
| 20260507000435 | 26 | 220 | 9.7 | 14.5 | 0.00 | 0.00 | 0.00 | 19 | 1012.2 |
| 20260506234438 | 26 | 225 | 16.1 | 16.1 | 0.00 | 0.00 | 0.00 | 19 | 1012.3 |
| 20260506233436 | 26 | 212 | 11.3 | 14.5 | 0.00 | 0.00 | 0.00 | 19 | 1012.6 |
| 20260506232442 | 26 | 232 | 3.2 | 4.8 | 0.00 | 0.00 | 0.00 | 20 | 1012.5 |
| 20260506230435 | 26 | 34 | 3.2 | 4.8 | 0.00 | 0.00 | 0.00 | 19 | 1012.6 |
| 20260506225434 | 26 | 159 | 6.4 | 9.7 | 0.00 | 0.00 | 0.00 | 19 | 1012.6 |
| 20260506224435 | 26 | 144 | 6.4 | 6.4 | 0.00 | 0.00 | 0.00 | 20 | 1012.6 |
| 20260506223434 | 26 | 84 | 0.0 | 1.6 | 0.00 | 0.00 | 0.00 | 19 | 1012.8 |
| 20260506222437 | 26 | 154 | 6.4 | 9.7 | 0.00 | 0.00 | 0.00 | 20 | 1013.1 |
| 20260506221436 | 25 | 237 | 14.5 | 17.7 | 0.00 | 0.00 | 0.00 | 20 | 1013.0 |
| 20260506220434 | 26 | 231 | 6.4 | 9.7 | 0.00 | 0.00 | 0.00 | 19 | 1013.2 |
| 20260506215434 | 26 | 330 | 9.7 | 12.9 | 0.00 | 0.00 | 0.00 | 19 | 1013.2 |
| 20260506214515 | 26 | 192 | 3.2 | 4.8 | 0.00 | 0.00 | 0.00 | 19 | 1013.4 |
| 20260506214435 | 26 | 192 | 3.2 | 4.8 | 0.00 | 0.00 | 0.00 | 19 | 1013.4 |
| 20260506213434 | 26 | 254 | 4.8 | 8.0 | 0.00 | 0.00 | 0.00 | 20 | 1013.7 |
| 20260506212435 | 26 | 249 | 6.4 | 8.0 | 0.00 | 0.00 | 0.00 | 20 | 1013.7 |
| 20260506211436 | 27 | 320 | 12.9 | 17.7 | 0.00 | 0.00 | 0.00 | 19 | 1013.8 |
| 20260506210706 | 26 | 96 | 0.0 | 1.6 | 0.00 | 0.00 | 0.00 | 20 | 1014.1 |
| 20260506210436 | 26 | 96 | 0.0 | 1.6 | 0.00 | 0.00 | 0.00 | 20 | 1014.1 |
| 20260506205435 | 26 | 177 | 4.8 | 6.4 | 0.00 | 0.00 | 0.00 | 20 | 1014.0 |
| 20260506204435 | 25 | 123 | 1.6 | 3.2 | 0.00 | 0.00 | 0.00 | 22 | 1014.1 |
| 20260506203434 | 25 | 280 | 3.2 | 4.8 | 0.00 | 0.00 | 0.00 | 22 | 1014.2 |
| 20260506202434 | 26 | 235 | 8.0 | 12.9 | 0.00 | 0.00 | 0.00 | 21 | 1014.3 |
| 20260506201435 | 26 | 283 | 11.3 | 12.9 | 0.00 | 0.00 | 0.00 | 21 | 1014.5 |
| 20260506200654 | 24 | 165 | 3.2 | 3.2 | 0.00 | 0.00 | 0.00 | 22 | 1014.6 |
| 20260506200434 | 24 | 165 | 3.2 | 3.2 | 0.00 | 0.00 | 0.00 | 22 | 1014.6 |
| 20260506195435 | 25 | 28 | 4.8 | 6.4 | 0.00 | 0.00 | 0.00 | 22 | 1014.6 |
| 20260506194705 | 24 | 246 | 6.4 | 6.4 | 0.00 | 0.00 | 0.00 | 23 | 1014.9 |
| 20260506194435 | 24 | 246 | 6.4 | 6.4 | 0.00 | 0.00 | 0.00 | 23 | 1014.9 |
| 20260506193434 | 24 | 235 | 3.2 | 4.8 | 0.00 | 0.00 | 0.00 | 23 | 1014.9 |
| 20260506192434 | 24 | 276 | 9.7 | 12.9 | 0.00 | 0.00 | 0.00 | 23 | 1014.9 |
| 20260506191439 | 23 | 46 | 3.2 | 4.8 | 0.00 | 0.00 | 0.00 | 23 | 1014.7 |
| 20260506190434 | 23 | 200 | 4.8 | 6.4 | 0.00 | 0.00 | 0.00 | 23 | 1015.0 |
| 20260506185434 | 23 | 108 | 6.4 | 8.0 | 0.00 | 0.00 | 0.00 | 24 | 1015.1 |
| 20260506184435 | 24 | 182 | 9.7 | 12.9 | 0.00 | 0.00 | 0.00 | 23 | 1015.2 |
| 20260506182434 | 23 | 198 | 4.8 | 6.4 | 0.00 | 0.00 | 0.00 | 24 | 1015.3 |
| 20260506181435 | 22 | 147 | 1.6 | 1.6 | 0.00 | 0.00 | 0.00 | 25 | 1015.5 |
| 20260506180434 | 23 | 203 | 3.2 | 4.8 | 0.00 | 0.00 | 0.00 | 24 | 1015.6 |
| 20260506175436 | 23 | 155 | 6.4 | 6.4 | 0.00 | 0.00 | 0.00 | 24 | 1015.6 |
| 20260506174436 | 22 | 274 | 6.4 | 6.4 | 0.00 | 0.00 | 0.00 | 25 | 1015.4 |
| 20260506173435 | 23 | 26 | 6.4 | 8.0 | 0.00 | 0.00 | 0.00 | 24 | 1015.5 |
| 20260506172734 | 23 | 273 | 1.6 | 4.8 | 0.00 | 0.00 | 0.00 | 24 | 1015.5 |
| 20260506172435 | 23 | 273 | 1.6 | 4.8 | 0.00 | 0.00 | 0.00 | 24 | 1015.5 |
| 20260506171436 | 23 | 62 | 0.0 | 1.6 | 0.00 | 0.00 | 0.00 | 24 | 1015.4 |
| 20260506170435 | 22 | 60 | 3.2 | 3.2 | 0.00 | 0.00 | 0.00 | 26 | 1015.6 |
| 20260506165716 | 22 | 88 | 0.0 | 1.6 | 0.00 | 0.00 | 0.00 | 26 | 1015.4 |
| 20260506165435 | 22 | 88 | 0.0 | 1.6 | 0.00 | 0.00 | 0.00 | 26 | 1015.4 |
| 20260506164436 | 22 | 98 | 0.0 | 1.6 | 0.00 | 0.00 | 0.00 | 26 | 1015.4 |
| 20260506163435 | 22 | 92 | 0.0 | 1.6 | 0.00 | 0.00 | 0.00 | 26 | 1015.4 |
| 20260506162435 | 20 | 90 | 0.0 | 0.0 | 0.00 | 0.00 | 0.00 | 29 | 1015.3 |
| 20260506161436 | 20 | 86 | 0.0 | 1.6 | 0.00 | 0.00 | 0.00 | 30 | 1015.3 |
| 20260506160435 | 20 | 116 | 1.6 | 1.6 | 0.00 | 0.00 | 0.00 | 30 | 1015.3 |
| 20260506155435 | 20 | 71 | 0.0 | 1.6 | 0.00 | 0.00 | 0.00 | 30 | 1015.4 |
| 20260506154436 | 20 | 84 | 1.6 | 1.6 | 0.00 | 0.00 | 0.00 | 30 | 1015.4 |
| 20260506153435 | 19 | 146 | 3.2 | 4.8 | 0.00 | 0.00 | 0.00 | 31 | 1015.4 |
| 20260506152435 | 19 | 53 | 3.2 | 3.2 | 0.00 | 0.00 | 0.00 | 32 | 1015.5 |
| 20260506151436 | 19 | 97 | 1.6 | 3.2 | 0.00 | 0.00 | 0.00 | 32 | 1015.3 |
| 20260506150435 | 18 | 112 | 4.8 | 6.4 | 0.00 | 0.00 | 0.00 | 32 | 1015.4 |
| 20260506145435 | 18 | 61 | 1.6 | 3.2 | 0.00 | 0.00 | 0.00 | 33 | 1015.4 |
| 20260506144437 | 17 | 49 | 1.6 | 1.6 | 0.00 | 0.00 | 0.00 | 34 | 1015.3 |